{"data":{"norad_id":50204,"intl_designator":"2021-125BA","name":"STARLINK-3254","alt_names":[],"object_type":"PAYLOAD","status":"ACTIVE","operator":null,"country":"US","launch_date":"2021-12-18","launch_site_code":"AFWTR","launch_vehicle":null,"mission":null,"orbit_class":"UNKNOWN","rcs_meters":null,"size_class":null,"mass_kg":null,"dimensions":null,"purposes":["comms"],"wikipedia_slug":null,"has_3d_model":false,"image_url":null,"decayed_at":null,"tle_current":{"epoch":"2026-09-20T00:58:41.548224Z","epoch_age_seconds":85041,"freshness":"FRESH","line1":"1 50204U 21125BA  26263.04075866  .00000669  00000+0  33329-4 0  9991","line2":"2 50204  53.1595  75.0811 0001147  92.9609 267.1524 15.31703199266281","mean_motion":15.31703199,"eccentricity":0.0001147,"inclination_deg":53.1595,"raan_deg":75.0811,"arg_perigee_deg":92.9609,"mean_anomaly_deg":267.1524,"bstar":3.3329e-5,"rev_number":26628,"period_min":94.012991612222,"perigee_km":469.94489409214,"apogee_km":471.51602428728,"semimajor_km":6848.8674591897,"source":"CELESTRAK","updated_at":"2026-09-20T09:00:39.574254Z"}}}